FW3057 Weather Reports


Display with metric or nautical units.
time (UTC)temp
F
wind
direction
speed
MPH
gust
MPH
rain 1hr
in
rain 24hr
in
rain mn
in
humidity
%
barometer
mb
20260506215310 53 89 2.0 4.0 0.00 0.00 0.00 89 1014.1
20260506214310 53 89 3.0 4.0 0.00 0.00 0.00 89 1014.1
20260506213310 53 72 2.0 6.0 0.00 0.00 0.00 89 1014.1
20260506212310 53 83 2.0 5.0 0.00 0.00 0.00 89 1014.1
20260506211310 53 107 3.0 5.0 0.00 0.00 0.00 89 1014.2
20260506210310 53 61 4.0 6.0 0.00 0.00 0.00 88 1014.1
20260506205310 53 114 2.0 5.0 0.00 0.00 0.00 88 1014.1
20260506204310 53 108 2.0 5.0 0.00 0.00 0.00 88 1014.1
20260506203310 53 135 2.0 3.0 0.00 0.00 0.00 89 1014.1
20260506202310 53 100 1.0 3.0 0.00 0.00 0.00 89 1014.1
20260506200310 54 117 2.0 3.0 0.00 0.00 0.00 88 1013.9
20260506194310 54 51 1.0 6.0 0.00 0.00 0.00 88 1013.5
20260506193310 54 127 1.0 3.0 0.00 0.00 0.00 88 1013.5
20260506192310 54 46 2.0 5.0 0.00 0.00 0.00 89 1013.4
20260506191310 54 103 2.0 4.0 0.00 0.00 0.00 89 1013.4
20260506190310 54 58 3.0 5.0 0.00 0.00 0.00 89 1013.4
20260506185309 54 81 4.0 5.0 0.00 0.00 0.00 88 1013.3
20260506184309 54 70 3.0 6.0 0.00 0.00 0.00 88 1013.3
20260506183310 54 96 3.0 5.0 0.00 0.00 0.00 88 1013.1
20260506182309 54 113 3.0 6.0 0.00 0.00 0.00 88 1013.2
20260506181309 54 75 3.0 5.0 0.00 0.00 0.00 88 1013.1
20260506180309 55 110 2.0 5.0 0.00 0.00 0.00 88 1013.1
20260506175309 55 88 3.0 6.0 0.00 0.00 0.00 88 1013.0
20260506174310 55 84 4.0 5.0 0.00 0.00 0.00 88 1012.9
20260506173309 55 84 5.0 8.0 0.00 0.00 0.00 87 1012.9
20260506172309 55 108 2.0 7.0 0.00 0.00 0.00 87 1012.9
20260506171309 55 72 4.0 5.0 0.00 0.00 0.00 87 1012.8
20260506170309 55 70 3.0 5.0 0.00 0.00 0.00 87 1012.8
20260506165309 55 100 2.0 5.0 0.00 0.00 0.00 87 1012.9
20260506164309 55 63 1.0 6.0 0.00 0.00 0.00 87 1012.8
20260506162309 55 66 4.0 6.0 0.00 0.00 0.00 86 1012.8
20260506161309 55 56 2.0 5.0 0.00 0.00 0.00 86 1012.8
20260506155309 55 67 2.0 6.0 0.00 0.00 0.00 86 1012.9
20260506154309 55 63 2.0 5.0 0.00 0.00 0.00 86 1012.8
20260506153309 55 8 3.0 7.0 0.00 0.00 0.00 86 1012.8
20260506152309 55 1 1.0 6.0 0.00 0.00 0.00 85 1012.7
20260506151309 56 1 2.0 5.0 0.00 0.00 0.00 85 1012.8
20260506150309 56 89 3.0 5.0 0.00 0.00 0.00 85 1012.7
20260506130310 58 49 6.0 10.0 0.00 0.00 0.00 83 1012.8
20260506125310 58 124 4.0 9.0 0.00 0.00 0.00 84 1012.9
20260506124310 57 54 6.0 11.0 0.00 0.00 0.00 84 1012.9
20260506123310 57 82 6.0 12.0 0.00 0.00 0.00 84 1012.8
20260506122310 57 66 6.0 9.0 0.00 0.00 0.00 83 1012.7
20260506121310 57 86 4.0 9.0 0.00 0.00 0.00 85 1012.8
20260506120310 57 66 6.0 8.0 0.00 0.00 0.00 85 1012.8
20260506115310 56 89 4.0 10.0 0.00 0.00 0.00 87 1012.8
20260506114310 56 58 7.0 10.0 0.00 0.00 0.00 87 1012.7
20260506113310 56 84 6.0 10.0 0.00 0.00 0.00 88 1012.6
20260506112310 56 96 5.0 10.0 0.00 0.00 0.00 88 1012.8
20260506111310 56 124 4.0 8.0 0.00 0.00 0.00 89 1012.8
20260506110310 56 76 3.0 9.0 0.00 0.00 0.00 91 1012.7
20260506105310 56 60 6.0 8.0 0.00 0.00 0.00 92 1012.8
20260506104310 56 63 3.0 5.0 0.00 0.00 0.00 93 1012.6
20260506103310 55 51 4.0 7.0 0.00 0.00 0.00 93 1012.6
20260506101310 55 71 3.0 6.0 0.00 0.00 0.00 94 1012.6
20260506100310 55 58 3.0 6.0 0.00 0.00 0.00 95 1012.6
20260506095310 55 59 4.0 6.0 0.00 0.00 0.00 95 1012.6
20260506094310 54 89 2.0 4.0 0.00 0.00 0.00 95 1012.4
20260506093310 54 76 2.0 6.0 0.00 0.00 0.00 96 1012.3
20260506091310 54 105 3.0 5.0 0.00 0.00 0.00 97 1012.3
20260506090310 54 28 2.0 5.0 0.00 0.00 0.00 97 1012.2
20260506085310 54 35 1.0 3.0 0.00 0.00 0.00 97 1012.1
20260506084310 54 142 1.0 2.0 0.00 0.00 0.00 97 1012.1
20260506083310 54 89 1.0 4.0 0.00 0.00 0.00 98 1012.0
20260506082310 54 328 1.0 3.0 0.00 0.00 0.00 98 1012.0
20260506081309 53 340 1.0 3.0 0.00 0.00 0.00 98 1012.0
20260506080310 53 1 2.0 3.0 0.00 0.00 0.00 98 1011.9
20260506071309 51 288 3.0 6.0 0.00 0.00 0.00 98 1011.7
20260506070309 51 286 3.0 5.0 0.00 0.00 0.00 98 1011.8
20260506061309 50 269 1.0 5.0 0.00 0.00 0.00 98 1011.3
20260506060309 50 262 3.0 5.0 0.00 0.00 0.00 98 1011.4
20260506051309 50 276 4.0 5.0 0.00 0.00 0.00 98 1011.2
20260506050309 50 283 3.0 5.0 0.00 0.00 0.00 98 1011.2
20260506044309 50 269 1.0 3.0 0.00 0.00 0.00 97 1011.2
20260506043309 50 240 1.0 3.0 0.00 0.00 0.00 97 1011.2
20260506042309 50 241 1.0 4.0 0.00 0.00 0.00 97 1011.1
20260506041309 50 269 3.0 4.0 0.00 0.00 0.00 97 1011.1
20260506040309 50 269 1.0 5.0 0.00 0.00 0.00 97 1011.1
20260506035309 50 288 4.0 6.0 0.00 0.00 0.00 97 1011.1
20260506034309 50 274 3.0 6.0 0.00 0.00 0.00 97 1011.2
20260506033310 50 262 4.0 6.0 0.00 0.00 0.00 98 1011.2
20260506032309 50 272 4.0 6.0 0.00 0.00 0.00 98 1011.3
20260506031309 51 297 3.0 6.0 0.00 0.00 0.00 98 1011.3
20260506030309 51 274 4.0 7.0 0.00 0.00 0.00 97 1011.3
20260506023312 51 46 0.0 1.0 0.00 0.00 0.00 97 1011.3
20260506022311 51 223 0.0 2.0 0.00 0.00 0.00 97 1011.4
20260506021312 51 206 1.0 2.0 0.00 0.00 0.00 97 1011.4
20260506020311 51 1 0.0 3.0 0.00 0.00 0.00 97 1011.4
20260506015311 51 340 1.0 3.0 0.00 0.00 0.00 97 1011.4
20260506014312 51 306 2.0 3.0 0.00 0.00 0.00 97 1011.5
20260506013312 51 293 3.0 4.0 0.00 0.00 0.00 97 1011.5
20260506012311 51 28 0.0 2.0 0.00 0.00 0.00 97 1011.6
20260506011312 51 314 0.0 3.0 0.00 0.00 0.00 97 1011.6
20260506010311 51 349 1.0 3.0 0.00 0.00 0.00 97 1011.7
20260506005312 51 15 2.0 4.0 0.00 0.00 0.00 97 1011.8
20260506003311 51 324 2.0 3.0 0.00 0.00 0.00 97 1011.8
20260506002311 51 314 2.0 3.0 0.00 0.00 0.00 97 1011.8
20260506001311 51 314 2.0 3.0 0.00 0.00 0.00 97 1011.9
20260506000311 51 314 2.0 3.0 0.00 0.00 0.00 97 1011.9
20260505235311 51 340 2.0 5.0 0.00 0.00 0.00 97 1012.0
20260505234311 51 302 3.0 5.0 0.00 0.00 0.00 97 1012.0
20260505233311 51 321 1.0 3.0 0.00 0.00 0.00 97 1012.0
20260505232311 51 347 3.0 4.0 0.00 0.00 0.00 97 1012.1
20260505230311 51 331 1.0 4.0 0.00 0.00 0.00 97 1012.2
20260505225311 51 324 1.0 3.0 0.00 0.00 0.00 97 1012.2
20260505224311 51 279 1.0 3.0 0.00 0.00 0.00 97 1012.2
20260505223311 51 283 1.0 3.0 0.00 0.00 0.00 97 1012.3
20260505222311 52 295 2.0 5.0 0.00 0.00 0.00 97 1012.3
20260505220311 52 320 3.0 4.0 0.00 0.00 0.00 97 1012.3